Vorticity
6 6 5 8 7 5 6 7 4 9 7 5 4 5 11 9 10 11 13 9 9 8 7 4 3 1 6 6 6 9 9 9 6 7 9 8 7 6 6 5 7 7 4 3 9
6 7 8 6 5 6 10 6 3 1 6 8 4 5 10 7 13 9 12 10 7 8 9 9 10 10 8 5 7 8 9 7 6 6 7 7 7 5 4 3 5 10 19 16 15
5 6 4 7 11 5 3 4 8 6 7 6 9 8 6 8 9 10 8 7 6 8 7 7 7 8 13 9 9 7 8 6 7 6 6 6 8 9 17 23 26 19 15 13 23
10 4 5 4 2 5 7 9 7 4 7 6 8 10 5 4 7 4 5 4 6 7 7 6 7 8 9 12 11 9 7 7 5 6 7 9 17 22 24 26 22 22 21 30 24
13 12 5 8 5 7 2 10 4 5 7 12 9 9 6 5 6 4 3 2 2 3 4 7 8 7 9 10 12 8 9 7 5 6 9 17 26 29 27 19 18 29 22 30 26
9 11 18 13 12 10 12 8 7 4 7 7 8 7 7 7 5 4 4 3 4 6 5 8 12 11 6 10 13 9 8 6 4 8 17 30 28 22 18 22 23 20 22 19 22
10 2 12 10 13 10 10 8 5 4 4 3 4 12 8 8 8 4 4 4 4 6 8 7 11 17 12 13 11 9 6 3 7 16 17 32 18 2 15 20 17 15 17 17 20
1 5 7 9 8 11 13 6 5 5 8 5 7 9 11 10 10 7 6 5 5 9 12 7 11 13 15 13 12 7 5 6 10 11 24 26 11 16 17 12 12 19 18 18 18
6 5 5 10 10 9 10 11 9 9 10 9 7 10 7 7 6 8 6 7 7 11 11 11 12 13 12 14 10 5 4 8 12 21 24 13 11 3 16 14 19 9 21 16 22
2 1 4 -5 10 10 7 8 9 10 11 9 10 9 8 9 7 6 7 7 10 11 9 11 13 12 10 17 9 7 6 6 12 26 17 16 6 7 43 32 -2 24 15 18 13
3 5 6 7 1 13 9 4 5 5 6 8 10 7 9 5 7 7 9 8 10 11 9 11 12 14 11 14 10 5 5 8 16 22 16 9 -0 14 38 13 16 33 37 4 21
6 7 -1 4 6 -2 16 10 5 6 4 5 5 6 5 9 9 9 8 9 11 8 11 10 11 13 17 10 13 6 6 10 17 18 9 1 8 14 25 22 5 18 14 76 32
5 6 7 3 0 5 7 11 9 5 5 1 4 8 10 6 8 7 9 7 9 11 11 13 9 15 14 11 11 6 8 12 15 19 4 12 -2 13 13 13 27 54 -3 35 -1
6 9 11 11 3 5 2 -2 11 9 7 -4 5 1 9 8 8 9 6 7 9 5 7 9 9 12 12 16 14 10 8 12 14 13 6 4 17 3 35 13 36 25 19 4 52
3 6 1 4 9 10 6 2 6 12 1 3 4 5 5 6 10 8 6 5 5 7 5 7 6 8 11 15 15 9 7 9 15 13 10 4 11 -5 -18 -17 -12 22 1 4 3
14 8 3 9 8 3 9 8 12 5 14 6 3 6 4 3 4 5 10 6 4 6 7 7 6 7 10 11 13 14 7 8 11 18 15 5 8 -10 -3 -5 1 -8 -1 28 13
16 9 5 7 5 6 6 10 12 8 11 6 5 4 3 3 5 4 10 8 6 8 6 12 10 9 11 12 15 18 7 7 5 10 22 18 16 -3 -3 2 6 8 0 1 13
16 7 2 5 9 11 9 7 9 12 12 8 4 3 2 5 5 4 5 10 6 8 7 9 7 6 5 9 15 17 13 6 7 0 10 9 28 21 14 5 -1 16 9 3 2
9 6 10 13 8 6 11 12 13 6 9 12 7 3 4 7 3 6 5 8 8 6 8 9 9 3 6 5 7 7 10 9 4 4 -1 1 0 5 16 30 9 4 22 22 8
6 6 4 8 7 7 9 13 10 10 6 9 12 13 5 6 4 4 2 5 8 7 7 6 5 3 7 7 8 9 7 5 8 4 4 9 0 0 6 7 8 8 5 4 7
12 5 6 6 12 10 15 14 10 16 7 8 7 11 11 4 9 5 2 2 7 6 7 7 7 4 3 7 6 7 5 8 8 3 5 7 4 7 3 3 1 2 3 4 5
7 12 -0 8 -4 8 7 8 7 12 17 13 8 7 9 10 3 8 3 5 2 8 6 7 5 6 5 3 5 6 5 4 4 1 3 2 3 1 4 7 5 3 2 2 3
3 6 -1 9 2 3 4 3 8 8 11 14 21 15 3 11 13 6 6 5 3 4 8 4 8 5 5 5 4 5 5 2 3 5 5 3 5 4 2 3 4 3 5 5 5
4 10 9 3 6 3 6 1 5 6 3 11 14 16 13 2 13 10 5 1 6 3 8 9 6 8 6 4 3 4 8 3 2 7 -3 6 3 5 2 5 4 5 4 3 3
0 10 10 0 4 2 5 12 1 5 7 6 15 15 18 21 19 6 6 2 -2 10 5 10 9 6 8 6 5 2 6 8 1 1 4 2 2 1 2 3 4 4 4 4 2
10 8 1 2 -4 2 24 4 -1 10 7 6 11 10 12 13 15 11 14 17 10 2 9 3 9 6 7 6 7 5 5 9 7 -2 10 2 1 6 3 4 4 3 1 2 3
5 3 4 7 4 8 -6 -4 8 8 7 9 13 10 10 10 13 8 9 16 10 16 8 3 10 7 5 4 2 7 10 4 6 6 9 2 2 3 4 3 4 5 6 5 4
Height
5842 5839 5838 5834 5832 5829 5825 5822 5819 5816 5812 5808 5806 5803 5800 5797 5795 5792 5789 5787 5785 5783 5781 5778 5775 5772 5770 5767 5763 5761 5758 5755 5753 5750 5747 5743 5741 5737 5734 5733 5730 5728 5727 5729 5734
5842 5840 5837 5834 5832 5828 5825 5823 5820 5816 5812 5808 5805 5802 5799 5796 5793 5791 5788 5785 5783 5779 5776 5773 5771 5767 5763 5760 5758 5754 5752 5749 5745 5742 5738 5734 5728 5723 5719 5715 5712 5710 5708 5711 5715
5842 5840 5837 5834 5831 5828 5825 5822 5819 5815 5811 5808 5805 5802 5798 5795 5793 5790 5787 5784 5781 5777 5773 5770 5766 5762 5758 5755 5751 5748 5745 5741 5737 5732 5727 5721 5714 5705 5698 5698 5690 5689 5690 5694 5698
5842 5839 5837 5834 5831 5827 5824 5821 5819 5814 5811 5808 5804 5800 5796 5794 5792 5788 5785 5782 5779 5775 5771 5767 5762 5758 5754 5750 5746 5742 5737 5732 5728 5722 5715 5706 5697 5691 5682 5679 5676 5675 5676 5679 5684
5843 5839 5836 5833 5830 5827 5823 5820 5817 5814 5811 5807 5804 5800 5797 5793 5791 5787 5784 5779 5775 5771 5767 5763 5758 5754 5749 5744 5740 5735 5731 5726 5719 5711 5702 5693 5684 5677 5671 5667 5664 5663 5664 5668 5673
5843 5839 5835 5832 5829 5826 5822 5819 5816 5813 5810 5806 5803 5800 5797 5793 5790 5786 5782 5777 5773 5768 5763 5759 5754 5748 5744 5739 5734 5729 5723 5719 5711 5703 5693 5682 5673 5667 5664 5659 5657 5656 5656 5659 5664
5843 5840 5835 5831 5828 5825 5822 5819 5816 5813 5809 5806 5803 5799 5796 5793 5789 5785 5780 5775 5769 5764 5759 5754 5748 5742 5738 5734 5728 5723 5720 5713 5705 5694 5683 5674 5670 5665 5660 5655 5653 5652 5652 5657 5661
5843 5840 5836 5832 5828 5825 5822 5819 5815 5812 5809 5806 5802 5799 5796 5792 5788 5784 5779 5774 5767 5763 5756 5750 5744 5739 5734 5729 5726 5722 5715 5708 5699 5688 5678 5673 5668 5664 5659 5655 5652 5651 5650 5651 5655
5844 5841 5836 5833 5829 5826 5822 5819 5816 5812 5809 5806 5803 5799 5795 5791 5787 5783 5778 5773 5766 5761 5754 5748 5742 5735 5732 5727 5721 5717 5713 5705 5694 5684 5678 5675 5670 5666 5660 5655 5649 5647 5648 5649 5654
5844 5840 5837 5833 5829 5826 5823 5819 5815 5812 5809 5805 5801 5799 5794 5791 5786 5781 5776 5770 5764 5758 5752 5746 5739 5733 5727 5725 5721 5716 5710 5702 5693 5686 5679 5676 5672 5666 5659 5655 5649 5647 5647 5649 5652
5843 5840 5837 5833 5830 5826 5822 5819 5816 5812 5808 5804 5801 5797 5793 5790 5785 5780 5775 5769 5763 5756 5750 5744 5738 5732 5727 5723 5718 5714 5708 5701 5693 5686 5681 5678 5675 5667 5659 5655 5651 5645 5644 5648 5653
5842 5839 5836 5832 5829 5826 5822 5818 5814 5812 5808 5804 5800 5796 5791 5787 5783 5778 5772 5768 5762 5754 5749 5744 5738 5733 5727 5722 5718 5713 5708 5702 5695 5688 5683 5682 5676 5667 5660 5656 5656 5651 5647 5645 5653
5839 5837 5834 5831 5828 5825 5821 5817 5813 5809 5807 5803 5799 5795 5791 5787 5782 5777 5772 5766 5761 5754 5749 5743 5738 5732 5727 5721 5716 5713 5709 5703 5696 5690 5686 5684 5678 5674 5669 5663 5661 5653 5653 5652 5653
5837 5834 5831 5829 5828 5823 5819 5816 5812 5808 5805 5803 5798 5794 5789 5784 5781 5776 5771 5766 5760 5756 5749 5744 5738 5733 5727 5722 5718 5714 5710 5704 5697 5692 5689 5688 5685 5680 5676 5667 5664 5661 5662 5661 5664
5834 5831 5828 5825 5823 5821 5818 5814 5811 5807 5804 5801 5797 5792 5787 5784 5779 5775 5771 5765 5760 5755 5751 5745 5738 5733 5727 5724 5720 5716 5711 5706 5700 5695 5691 5691 5689 5685 5684 5677 5677 5671 5671 5670 5666
5830 5827 5825 5822 5820 5817 5814 5811 5808 5806 5800 5798 5794 5790 5786 5781 5777 5773 5769 5765 5760 5754 5750 5745 5738 5733 5728 5724 5720 5717 5713 5708 5704 5699 5695 5693 5691 5690 5686 5687 5680 5680 5681 5682 5678
5827 5825 5823 5819 5817 5814 5811 5808 5806 5801 5798 5794 5791 5787 5783 5779 5775 5771 5766 5762 5759 5754 5749 5745 5739 5734 5729 5724 5720 5717 5714 5711 5708 5703 5701 5695 5693 5691 5688 5689 5690 5687 5685 5684 5687
5824 5822 5819 5816 5812 5809 5807 5804 5802 5798 5794 5790 5787 5784 5780 5776 5773 5769 5765 5761 5756 5752 5748 5744 5739 5734 5730 5725 5720 5717 5715 5712 5709 5707 5705 5702 5697 5695 5693 5690 5691 5692 5690 5689 5689
5821 5819 5815 5811 5808 5804 5801 5799 5796 5793 5790 5786 5783 5779 5777 5773 5769 5766 5763 5759 5754 5750 5746 5743 5739 5734 5730 5726 5722 5717 5715 5714 5711 5708 5705 5705 5703 5700 5697 5694 5693 5694 5692 5690 5689
5818 5816 5812 5809 5805 5802 5798 5795 5790 5788 5786 5781 5778 5776 5771 5768 5765 5762 5759 5755 5752 5748 5744 5741 5739 5734 5730 5727 5722 5719 5716 5713 5712 5710 5707 5705 5703 5702 5700 5699 5697 5696 5695 5693 5690
5813 5812 5807 5804 5801 5798 5793 5790 5787 5783 5780 5779 5774 5770 5767 5764 5761 5757 5755 5752 5749 5746 5743 5739 5736 5734 5729 5725 5722 5719 5716 5712 5710 5709 5707 5706 5705 5702 5699 5697 5695 5694 5694 5693 5692
5809 5807 5804 5799 5799 5793 5791 5787 5784 5779 5775 5771 5769 5764 5760 5758 5756 5753 5749 5746 5744 5742 5739 5734 5732 5729 5727 5723 5721 5718 5715 5711 5709 5707 5704 5703 5703 5699 5698 5697 5695 5692 5690 5687 5684
5802 5802 5800 5795 5792 5789 5785 5781 5776 5773 5769 5765 5762 5759 5755 5752 5748 5748 5744 5743 5739 5735 5732 5730 5727 5725 5722 5721 5717 5715 5712 5709 5706 5704 5702 5699 5699 5696 5693 5691 5689 5687 5685 5683 5681
5795 5793 5793 5790 5788 5784 5780 5776 5770 5767 5765 5759 5755 5750 5748 5746 5742 5740 5737 5735 5733 5730 5726 5724 5721 5719 5717 5715 5713 5710 5708 5705 5703 5700 5698 5696 5692 5692 5689 5687 5684 5682 5679 5676 5674
5789 5786 5785 5783 5780 5776 5773 5769 5763 5759 5758 5753 5749 5743 5740 5737 5733 5732 5729 5726 5725 5723 5721 5719 5717 5713 5711 5707 5705 5704 5702 5699 5697 5694 5692 5689 5687 5685 5683 5681 5678 5675 5673 5671 5668
5780 5779 5775 5772 5772 5768 5765 5761 5757 5752 5749 5745 5739 5734 5732 5728 5724 5723 5720 5716 5715 5714 5710 5710 5709 5705 5705 5701 5697 5697 5695 5692 5690 5688 5685 5682 5679 5678 5674 5672 5670 5667 5664 5661 5658
5770 5768 5766 5764 5760 5759 5757 5753 5748 5743 5740 5737 5731 5728 5723 5720 5715 5713 5711 5709 5706 5704 5700 5699 5697 5696 5696 5692 5689 5689 5687 5684 5682 5680 5677 5674 5671 5667 5665 5662 5660 5657 5654 5651 5647